Date,TemperatureHighF,TemperatureAvgF,TemperatureLowF,DewpointHighF,DewpointAvgF,DewpointLowF,HumidityHigh,HumidityAvg,HumidityLow,PressureMaxIn,PressureMinIn,WindSpeedMaxMPH,WindSpeedAvgMPH,GustSpeedMaxMPH,PrecipitationSumIn
2013-1-1,31,23,17,24,16,7,92,73,50,0.00,40.00,22,10,37,0.00
2013-1-2,27,21,9,19,11,4,84,64,42,0.00,40.00,30,16,43,0.00
2013-1-3,34,20,9,11,5,-1,80,53,35,0.00,40.00,14,9,19,0.00
2013-1-4,42,28,20,13,6,1,55,40,27,0.00,40.00,16,8,20,0.00
2013-1-5,37,27,20,18,12,8,61,53,42,0.00,40.00,12,6,20,0.00
2013-1-6,40,32,22,17,12,5,54,43,32,0.00,40.00,24,11,37,0.00
2013-1-7,39,30,22,18,14,8,59,50,35,0.00,40.00,12,7,17,0.00
2013-1-8,42,32,24,19,17,13,73,53,38,0.00,40.00,22,8,31,0.00
2013-1-9,48,40,25,24,19,13,60,43,33,0.00,40.00,35,19,54,0.00
2013-1-10,51,41,25,27,18,14,96,43,27,0.00,40.00,30,19,47,0.00
2013-1-11,25,10,2,24,3,-6,94,76,62,0.00,40.00,31,23,51,0.00
2013-1-12,11,5,2,2,-2,-6,76,71,65,0.00,40.00,27,9,47,0.00
2013-1-13,14,7,2,3,-2,-6,78,67,56,0.00,40.00,12,6,19,0.00
2013-1-14,16,8,2,-1,-6,-9,62,52,45,0.00,40.00,16,10,22,0.00
2013-1-15,36,24,9,27,14,-7,85,66,47,0.00,40.00,25,11,34,0.00
2013-1-16,42,34,27,20,16,14,64,49,36,0.00,40.00,18,7,26,0.00
2013-1-17,42,32,23,21,15,10,59,50,40,0.00,40.00,15,11,22,0.00
2013-1-18,49,39,31,23,15,10,45,37,27,0.00,40.00,14,9,21,0.00
2013-1-19,41,35,27,22,16,10,79,47,30,0.00,40.00,13,7,19,0.00
2013-1-20,32,23,18,18,14,11,83,68,43,0.00,40.00,22,9,32,0.00
2013-1-21,38,25,14,18,14,10,87,66,41,0.00,40.00,10,3,16,0.00
2013-1-22,46,35,28,14,9,5,54,36,22,0.00,40.00,7,4,15,0.00
2013-1-23,34,31,27,19,12,5,64,47,29,0.00,40.00,20,7,26,0.00
2013-1-24,49,38,27,22,17,13,69,43,26,0.00,40.00,20,7,25,0.00
2013-1-25,53,37,26,25,20,16,73,53,26,0.00,40.00,14,7,20,0.00
2013-1-26,55,40,29,27,22,19,68,50,27,0.00,40.00,15,7,22,0.00
2013-1-27,40,33,28,32,28,24,98,83,59,0.00,40.00,19,11,26,0.00
2013-1-28,30,26,19,27,24,16,98,91,75,0.00,40.00,9,6,14,0.00
2013-1-29,25,16,3,20,10,-3,89,77,65,0.00,40.00,25,11,38,0.00
2013-1-30,30,18,1,24,13,-4,94,80,68,0.00,40.00,23,10,34,0.00
2013-1-31,30,16,2,22,9,-4,77,73,58,0.00,40.00,10,6,16,0.00